Time,TemperatureF,DewpointF,PressureIn,WindDirection,WindDirectionDegrees,WindSpeedMPH,WindSpeedGustMPH,Humidity,HourlyPrecipIn,Conditions,Clouds,dailyrainin,SoftwareType,DateUTC
2013-07-20 00:06:00,81.0,72.0,29.80,WSW,256,5.0,8.0,75,0.00,,,0.00,weatherlink.com 1.10,2013-07-20 05:06:00,
2013-07-20 00:21:00,81.2,72.0,29.81,SW,219,4.0,9.0,74,0.00,,,0.00,weatherlink.com 1.10,2013-07-20 05:21:00,
2013-07-20 00:36:00,81.2,72.0,29.80,West,279,3.0,8.0,74,0.00,,,0.00,weatherlink.com 1.10,2013-07-20 05:36:00,
2013-07-20 00:51:00,80.9,72.0,29.81,SW,231,3.0,8.0,75,0.00,,,0.00,weatherlink.com 1.10,2013-07-20 05:51:00,
2013-07-20 01:06:00,80.8,72.0,29.80,West,267,3.0,8.0,75,0.00,,,0.00,weatherlink.com 1.10,2013-07-20 06:06:00,
2013-07-20 01:21:00,80.7,72.0,29.80,SSW,211,6.0,8.0,75,0.00,,,0.00,weatherlink.com 1.10,2013-07-20 06:21:00,
2013-07-20 01:36:00,80.5,72.0,29.80,WSW,245,5.0,8.0,75,0.00,,,0.00,weatherlink.com 1.10,2013-07-20 06:36:00,
2013-07-20 01:51:00,80.2,72.0,29.80,SSW,203,2.0,9.0,75,0.00,,,0.00,weatherlink.com 1.10,2013-07-20 06:51:00,
2013-07-20 02:06:00,79.9,72.0,29.79,SSW,207,3.0,8.0,76,0.00,,,0.00,weatherlink.com 1.10,2013-07-20 07:06:00,
2013-07-20 02:21:00,79.7,72.0,29.79,WSW,250,0.0,6.0,76,0.00,,,0.00,weatherlink.com 1.10,2013-07-20 07:21:00,
2013-07-20 02:37:00,79.2,71.0,29.80,NNE,31,2.0,3.0,77,0.00,,,0.00,weatherlink.com 1.10,2013-07-20 07:37:00,
2013-07-20 02:52:00,78.6,71.0,29.80,South,187,0.0,2.0,78,0.00,,,0.00,weatherlink.com 1.10,2013-07-20 07:52:00,
2013-07-20 03:07:00,77.9,71.0,29.80,South,188,0.0,1.0,80,0.00,,,0.00,weatherlink.com 1.10,2013-07-20 08:07:00,
2013-07-20 03:22:00,77.1,72.0,29.80,South,189,0.0,1.0,83,0.00,,,0.00,weatherlink.com 1.10,2013-07-20 08:22:00,
2013-07-20 03:37:00,76.5,71.0,29.80,South,189,0.0,1.0,82,0.00,,,0.00,weatherlink.com 1.10,2013-07-20 08:37:00,
2013-07-20 03:52:00,76.2,71.0,29.79,South,189,0.0,1.0,83,0.00,,,0.00,weatherlink.com 1.10,2013-07-20 08:52:00,
2013-07-20 04:07:00,75.9,71.0,29.79,SW,214,0.0,1.0,84,0.00,,,0.00,weatherlink.com 1.10,2013-07-20 09:07:00,
2013-07-20 04:22:00,75.7,71.0,29.80,SW,214,1.0,2.0,84,0.00,,,0.00,weatherlink.com 1.10,2013-07-20 09:22:00,
2013-07-20 04:37:00,75.7,71.0,29.79,WSW,245,0.0,0.0,84,0.00,,,0.00,weatherlink.com 1.10,2013-07-20 09:37:00,
2013-07-20 04:52:00,74.9,71.0,29.80,WSW,245,0.0,1.0,86,0.00,,,0.00,weatherlink.com 1.10,2013-07-20 09:52:00,
2013-07-20 05:07:00,74.4,70.0,29.79,WSW,245,0.0,1.0,87,0.00,,,0.00,weatherlink.com 1.10,2013-07-20 10:07:00,
2013-07-20 05:22:00,74.0,70.0,29.80,WSW,245,0.0,0.0,88,0.00,,,0.00,weatherlink.com 1.10,2013-07-20 10:22:00,
2013-07-20 05:37:00,73.3,70.0,29.80,WSW,245,0.0,0.0,90,0.00,,,0.00,weatherlink.com 1.10,2013-07-20 10:37:00,
2013-07-20 05:52:00,72.9,70.0,29.80,WSW,245,0.0,1.0,91,0.00,,,0.00,weatherlink.com 1.10,2013-07-20 10:52:00,
2013-07-20 06:08:00,73.2,71.0,29.81,WSW,245,0.0,1.0,91,0.00,,,0.00,weatherlink.com 1.10,2013-07-20 11:08:00,
2013-07-20 06:22:00,73.3,71.0,29.81,WSW,245,0.0,0.0,91,0.00,,,0.00,weatherlink.com 1.10,2013-07-20 11:22:00,
2013-07-20 06:38:00,73.5,71.0,29.82,WSW,245,0.0,1.0,91,0.00,,,0.00,weatherlink.com 1.10,2013-07-20 11:38:00,
2013-07-20 06:53:00,73.9,71.0,29.82,WSW,245,0.0,1.0,91,0.00,,,0.00,weatherlink.com 1.10,2013-07-20 11:53:00,
2013-07-20 07:08:00,74.3,71.0,29.82,WSW,245,0.0,1.0,90,0.00,,,0.00,weatherlink.com 1.10,2013-07-20 12:08:00,
2013-07-20 07:23:00,75.0,71.0,29.82,WSW,245,1.0,1.0,88,0.00,,,0.00,weatherlink.com 1.10,2013-07-20 12:23:00,
2013-07-20 07:39:00,76.6,72.0,29.82,ENE,65,0.0,3.0,85,0.00,,,0.00,weatherlink.com 1.10,2013-07-20 12:39:00,
2013-07-20 07:54:00,77.3,71.0,29.83,NE,40,2.0,4.0,82,0.00,,,0.00,weatherlink.com 1.10,2013-07-20 12:54:00,
2013-07-20 08:09:00,77.3,71.0,29.83,NE,50,3.0,8.0,80,0.00,,,0.00,weatherlink.com 1.10,2013-07-20 13:09:00,
2013-07-20 08:23:00,78.3,71.0,29.83,ENE,60,4.0,10.0,77,0.00,,,0.00,weatherlink.com 1.10,2013-07-20 13:23:00,
2013-07-20 08:39:00,79.2,71.0,29.83,NE,51,3.0,7.0,76,0.00,,,0.00,weatherlink.com 1.10,2013-07-20 13:39:00,
2013-07-20 08:54:00,80.0,70.0,29.83,NE,51,7.0,9.0,72,0.00,,,0.00,weatherlink.com 1.10,2013-07-20 13:54:00,
2013-07-20 09:08:00,80.0,69.0,29.84,North,359,7.0,9.0,70,0.00,,,0.00,weatherlink.com 1.10,2013-07-20 14:08:00,
2013-07-20 09:24:00,80.5,71.0,29.83,NE,49,4.0,10.0,72,0.00,,,0.00,weatherlink.com 1.10,2013-07-20 14:24:00,
2013-07-20 09:39:00,81.0,69.0,29.83,ENE,69,7.0,10.0,67,0.00,,,0.00,weatherlink.com 1.10,2013-07-20 14:39:00,
2013-07-20 09:55:00,80.9,69.0,29.84,ENE,65,4.0,10.0,68,0.00,,,0.00,weatherlink.com 1.10,2013-07-20 14:55:00,
2013-07-20 10:10:00,81.7,70.0,29.85,NNE,18,8.0,8.0,67,0.00,,,0.00,weatherlink.com 1.10,2013-07-20 15:10:00,
2013-07-20 10:25:00,82.4,69.0,29.85,NNE,30,6.0,9.0,64,0.00,,,0.00,weatherlink.com 1.10,2013-07-20 15:25:00,
2013-07-20 10:39:00,82.3,69.0,29.85,NE,39,4.0,10.0,65,0.00,,,0.00,weatherlink.com 1.10,2013-07-20 15:39:00,
2013-07-20 10:55:00,82.8,70.0,29.86,ENE,60,3.0,8.0,66,0.00,,,0.00,weatherlink.com 1.10,2013-07-20 15:55:00,
2013-07-20 11:09:00,82.6,70.0,29.86,ENE,74,7.0,8.0,65,0.00,,,0.00,weatherlink.com 1.10,2013-07-20 16:09:00,
2013-07-20 11:25:00,82.8,68.0,29.86,NNE,14,4.0,9.0,62,0.00,,,0.00,weatherlink.com 1.10,2013-07-20 16:25:00,
2013-07-20 11:40:00,82.3,69.0,29.85,ENE,66,5.0,9.0,64,0.00,,,0.00,weatherlink.com 1.10,2013-07-20 16:40:00,
2013-07-20 11:56:00,83.2,70.0,29.85,NE,39,6.0,8.0,65,0.00,,,0.00,weatherlink.com 1.10,2013-07-20 16:56:00,
2013-07-20 12:10:00,82.7,70.0,29.86,ENE,61,3.0,7.0,66,0.00,,,0.00,weatherlink.com 1.10,2013-07-20 17:10:00,
2013-07-20 12:24:00,82.9,70.0,29.86,NNE,14,4.0,6.0,65,0.00,,,0.00,weatherlink.com 1.10,2013-07-20 17:24:00,
2013-07-20 12:40:00,83.5,71.0,29.86,NE,42,7.0,9.0,65,0.00,,,0.00,weatherlink.com 1.10,2013-07-20 17:40:00,
2013-07-20 12:55:00,84.2,71.0,29.86,ENE,61,2.0,9.0,65,0.00,,,0.00,weatherlink.com 1.10,2013-07-20 17:55:00,
2013-07-20 13:11:00,83.4,69.0,29.86,NNE,26,2.0,7.0,63,0.00,,,0.00,weatherlink.com 1.10,2013-07-20 18:11:00,
2013-07-20 13:41:00,82.8,70.0,29.86,NE,53,3.0,7.0,65,0.00,,,0.00,weatherlink.com 1.10,2013-07-20 18:41:00,
2013-07-20 13:55:00,83.5,70.0,29.86,NE,53,4.0,6.0,64,0.00,,,0.00,weatherlink.com 1.10,2013-07-20 18:55:00,
2013-07-20 14:11:00,84.9,69.0,29.85,NNE,29,9.0,10.0,59,0.00,,,0.00,weatherlink.com 1.10,2013-07-20 19:11:00,
2013-07-20 14:26:00,85.0,69.0,29.85,NE,47,3.0,8.0,58,0.00,,,0.00,weatherlink.com 1.10,2013-07-20 19:26:00,
2013-07-20 14:41:00,84.8,66.0,29.84,NE,47,3.0,11.0,54,0.00,,,0.00,weatherlink.com 1.10,2013-07-20 19:41:00,
2013-07-20 15:41:00,85.6,67.0,29.83,NNE,29,1.0,5.0,54,0.00,,,0.00,weatherlink.com 1.10,2013-07-20 20:41:00,
2013-07-20 15:57:00,85.8,68.0,29.83,NNE,12,1.0,2.0,55,0.00,,,0.00,weatherlink.com 1.10,2013-07-20 20:57:00,
2013-07-20 16:12:00,85.9,67.0,29.82,NNE,18,1.0,5.0,53,0.00,,,0.00,weatherlink.com 1.10,2013-07-20 21:12:00,
2013-07-20 16:26:00,87.0,68.0,29.81,NE,54,3.0,6.0,53,0.00,,,0.00,weatherlink.com 1.10,2013-07-20 21:26:00,
2013-07-20 16:42:00,87.3,68.0,29.80,NNE,18,2.0,5.0,53,0.00,,,0.00,weatherlink.com 1.10,2013-07-20 21:42:00,
2013-07-20 16:56:00,87.0,68.0,29.80,ENE,60,5.0,7.0,53,0.00,,,0.00,weatherlink.com 1.10,2013-07-20 21:56:00,
2013-07-20 17:26:00,86.0,66.0,29.82,NNE,23,4.0,8.0,51,0.00,,,0.00,weatherlink.com 1.10,2013-07-20 22:26:00,
2013-07-20 17:42:00,85.8,66.0,29.83,ENE,63,5.0,8.0,51,0.00,,,0.00,weatherlink.com 1.10,2013-07-20 22:42:00,
2013-07-20 17:57:00,85.7,66.0,29.83,NE,35,2.0,5.0,52,0.00,,,0.00,weatherlink.com 1.10,2013-07-20 22:57:00,
2013-07-20 18:12:00,84.7,66.0,29.83,NE,46,2.0,4.0,53,0.00,,,0.00,weatherlink.com 1.10,2013-07-20 23:12:00,
2013-07-20 18:28:00,83.9,66.0,29.83,ENE,77,1.0,3.0,55,0.00,,,0.00,weatherlink.com 1.10,2013-07-20 23:28:00,
2013-07-20 18:43:00,84.5,68.0,29.83,ENE,60,1.0,3.0,58,0.00,,,0.00,weatherlink.com 1.10,2013-07-20 23:43:00,
2013-07-20 18:57:00,84.1,69.0,29.84,ENE,58,1.0,3.0,61,0.00,,,0.00,weatherlink.com 1.10,2013-07-20 23:57:00,
2013-07-20 19:12:00,84.2,70.0,29.86,ENE,58,1.0,1.0,62,0.00,,,0.00,weatherlink.com 1.10,2013-07-21 00:12:00,
2013-07-20 19:28:00,83.6,71.0,29.85,ENE,58,0.0,1.0,65,0.00,,,0.00,weatherlink.com 1.10,2013-07-21 00:28:00,
2013-07-20 19:42:00,83.0,71.0,29.86,ENE,58,0.0,1.0,68,0.00,,,0.00,weatherlink.com 1.10,2013-07-21 00:42:00,
2013-07-20 19:58:00,80.8,72.0,29.86,ENE,58,0.0,0.0,74,0.00,,,0.00,weatherlink.com 1.10,2013-07-21 00:58:00,
2013-07-20 20:13:00,78.9,70.0,29.86,ENE,58,0.0,1.0,74,0.00,,,0.00,weatherlink.com 1.10,2013-07-21 01:13:00,
2013-07-20 20:29:00,78.7,70.0,29.86,ENE,59,0.0,0.0,75,0.00,,,0.00,weatherlink.com 1.10,2013-07-21 01:29:00,
2013-07-20 20:43:00,77.3,69.0,29.86,ENE,58,1.0,2.0,75,0.00,,,0.00,weatherlink.com 1.10,2013-07-21 01:43:00,
2013-07-20 20:57:00,77.6,68.0,29.86,NE,56,2.0,2.0,72,0.00,,,0.00,weatherlink.com 1.10,2013-07-21 01:57:00,
2013-07-20 21:13:00,77.7,67.0,29.86,ENE,77,2.0,3.0,70,0.00,,,0.00,weatherlink.com 1.10,2013-07-21 02:13:00,
2013-07-20 21:27:00,77.4,68.0,29.86,ENE,71,3.0,3.0,72,0.00,,,0.00,weatherlink.com 1.10,2013-07-21 02:27:00,
2013-07-20 21:43:00,76.7,67.0,29.86,ENE,73,1.0,3.0,73,0.00,,,0.00,weatherlink.com 1.10,2013-07-21 02:43:00,
2013-07-20 21:59:00,75.7,68.0,29.86,ENE,73,0.0,1.0,78,0.00,,,0.00,weatherlink.com 1.10,2013-07-21 02:59:00,
2013-07-20 22:13:00,74.6,67.0,29.86,ENE,74,0.0,1.0,78,0.00,,,0.00,weatherlink.com 1.10,2013-07-21 03:13:00,
2013-07-20 22:29:00,74.1,68.0,29.86,ENE,73,0.0,1.0,80,0.00,,,0.00,weatherlink.com 1.10,2013-07-21 03:29:00,
2013-07-20 22:43:00,73.0,68.0,29.86,ENE,73,0.0,0.0,83,0.00,,,0.00,weatherlink.com 1.10,2013-07-21 03:43:00,
2013-07-20 22:59:00,71.5,68.0,29.87,ENE,73,0.0,0.0,87,0.00,,,0.00,weatherlink.com 1.10,2013-07-21 03:59:00,
2013-07-20 23:14:00,70.5,67.0,29.88,ENE,74,0.0,0.0,89,0.00,,,0.00,weatherlink.com 1.10,2013-07-21 04:14:00,
2013-07-20 23:29:00,70.7,68.0,29.88,ENE,73,0.0,1.0,90,0.00,,,0.00,weatherlink.com 1.10,2013-07-21 04:29:00,
2013-07-20 23:43:00,70.3,68.0,29.88,ENE,74,0.0,0.0,92,0.00,,,0.00,weatherlink.com 1.10,2013-07-21 04:43:00,
2013-07-20 23:59:00,70.1,68.0,29.88,ENE,73,0.0,0.0,92,0.00,,,0.00,weatherlink.com 1.10,2013-07-21 04:59:00,